Weather in Bismarck

United States     46°47′42″N   100°46′59″W
temp.,
°C
wind,
m/s
gust,
m/s
humid.,
%
clouds,
%
prec.,
mm/h
press.,
hPa
HPBL,
m
16 may, sun
sun1601:00+12sse227496 1.4 101514
04:00+11sse33845 0.3 101437
07:00+11ssw39895 0.3 1015216
10:00+19ssw56510 0.0 1015826
13:00+24ssw43370 0.0 10132151
16:00+22sse864053 0.0 10131369
19:00+23sse553626 0.0 10131542
22:00+17s511605 0.0 1014426
17 may, mon
mon1701:00+13s411810 0.0 1016300
04:00+11ssw26930 0.0 1016116
07:00+11sse25930 0.0 1016152
10:00+18s68620 0.0 1016863
13:00+23sse79400 0.0 10141633
16:00+25sse79340 0.0 10122137
19:00+23s89452 0.0 10121919
22:00+18sse612600 0.0 1013557
18 may, tue
tue1801:00+14sse412770 0.0 1013399
04:00+14s514820 0.0 1013575
07:00+13sse512925 0.0 1012460
10:00+19s711640 0.0 1011933
13:00+24s67420 0.0 10091777
16:00+22se795080 0.0 10081065
19:00+20sse61160100 0.0 1008762
22:00+19sse713679 0.0 1007733
19 may, wed
wed1901:00+18s61475100 0.0 1007682
04:00+16s5138545 0.0 1008496
07:00+15sse4109221 0.0 1008357
10:00+20ssw3566100 0.0 1008695
13:00+25s3449100 0.0 10071550
16:00+24ssw2552100 0.3 1006749
19:00+20se1469100 1.3 1006107
22:00+17sw1183100 7.1 100716
20 may, thu
thu2001:00+15sse2493100 9.9 100899
04:00+15se2294100 1.0 100755
07:00+14e2494100 1.0 1008125
10:00+20e457272 0.0 1008802
13:00+23se345430 0.8 10071557
16:00+19nne687895 1.4 1008447
19:00+17nne787016 1.4 1010623
22:00+10ne7128332 0.0 1015471